Main page
METAR-TAF:

METAR-TAF

Airports :

Tulln an der Donau, Austria

Military airbase

latitude: 48-19N, longitude: 016-07E, elevation: 175 m

METAR: missing

Time: 21:37 (19:37 UTC)

Forecast

The report was made 8 hours and 22 minutes ago, at 11:15 UTC
Forecast valid from 23 at 12 UTC to 23 at 21 UTC
Wind 3 kt from variable directions
Visibility 10 km or more
Few clouds at a height of 5000 ft

TAF: LOXT 231115Z 2312/2321 VRB03KT 9999 FEW050

Weather observations and forecasts of more than 4000 airports (METAR and TAF reports).

The available stations are represented by yellow and red dots on the map.

Hover mouse over dot to see the name of the station.

Then click to see weather observations and forecasts.

To change the map : click on the green buttons with a black cross to zoom in, on the green button with a dash to zoom out, or on the green arrows for adjacent maps.


METAR-TAF: